| time (UTC) | temp F | wind direction | speed MPH | gust MPH | rain 1hr in | rain 24hr in | rain mn in | humidity % | barometer mb |
| 20260901114603 | 71 | 0 | 0.0 | 1.0 | 0.00 | 0.01 | 0.00 | 94 | 1016.0 |
| 20260901113104 | 70 | 0 | 0.0 | 1.0 | 0.00 | 0.01 | 0.00 | 94 | 1016.0 |
| 20260901111612 | 70 | 0 | 0.0 | 1.0 | 0.00 | 0.01 | 0.00 | 93 | 1015.9 |
| 20260901110109 | 70 | 0 | 0.0 | 1.0 | 0.00 | 0.01 | 0.00 | 94 | 1015.7 |
| 20260901104625 | 70 | 0 | 0.0 | 1.0 | 0.00 | 0.01 | 0.00 | 93 | 1015.8 |
| 20260901103119 | 70 | 0 | 0.0 | 1.0 | 0.00 | 0.01 | 0.00 | 94 | 1015.7 |
| 20260901101606 | 69 | 0 | 0.0 | 2.0 | 0.00 | 0.01 | 0.00 | 93 | 1015.8 |
| 20260901100105 | 69 | 0 | 0.0 | 0.0 | 0.00 | 0.01 | 0.00 | 93 | 1015.8 |
| 20260901094605 | 69 | 0 | 0.0 | 1.0 | 0.00 | 0.01 | 0.00 | 93 | 1015.9 |
| 20260901093103 | 69 | 0 | 0.0 | 0.0 | 0.00 | 0.01 | 0.00 | 93 | 1015.8 |
| 20260901091608 | 69 | 0 | 0.0 | 0.0 | 0.00 | 0.01 | 0.00 | 93 | 1015.8 |
| 20260901090116 | 69 | 0 | 0.0 | 1.0 | 0.00 | 0.01 | 0.00 | 92 | 1015.9 |
| 20260901084608 | 69 | 0 | 0.0 | 1.0 | 0.00 | 0.01 | 0.00 | 92 | 1015.9 |
| 20260901083112 | 69 | 0 | 0.0 | 0.0 | 0.00 | 0.01 | 0.00 | 92 | 1015.9 |
| 20260901081606 | 69 | 0 | 0.0 | 1.0 | 0.00 | 0.01 | 0.00 | 92 | 1015.8 |
| 20260901080114 | 69 | 0 | 0.0 | 1.0 | 0.00 | 0.01 | 0.00 | 92 | 1015.9 |
| 20260901074604 | 69 | 0 | 0.0 | 2.0 | 0.00 | 0.03 | 0.00 | 92 | 1015.9 |
| 20260901073106 | 69 | 0 | 0.0 | 0.0 | 0.00 | 0.03 | 0.00 | 91 | 1016.0 |
| 20260901071606 | 69 | 0 | 0.0 | 2.0 | 0.00 | 0.03 | 0.00 | 92 | 1015.8 |
| 20260901070107 | 69 | 0 | 0.0 | 0.0 | 0.00 | 0.03 | 0.00 | 92 | 1016.1 |
| 20260901064618 | 69 | 0 | 0.0 | 0.0 | 0.00 | 0.11 | 0.00 | 92 | 1016.3 |
| 20260901063137 | 69 | 0 | 0.0 | 0.0 | 0.00 | 0.11 | 0.00 | 92 | 1016.5 |
| 20260901061606 | 69 | 0 | 0.0 | 0.0 | 0.00 | 0.11 | 0.00 | 91 | 1016.3 |
| 20260901060104 | 68 | 0 | 0.0 | 0.0 | 0.00 | 0.11 | 0.00 | 90 | 1016.7 |
| 20260901054604 | 69 | 0 | 0.0 | 0.0 | 0.00 | 0.11 | 0.00 | 91 | 1016.7 |
| 20260901053116 | 69 | 0 | 0.0 | 0.0 | 0.00 | 0.11 | 0.00 | 91 | 1016.7 |
| 20260901051603 | 69 | 0 | 0.0 | 0.0 | 0.00 | 0.11 | 0.00 | 90 | 1016.7 |
| 20260901050106 | 69 | 0 | 0.0 | 0.0 | 0.00 | 0.11 | 0.00 | 90 | 1016.8 |
| 20260901044607 | 69 | 0 | 0.0 | 0.0 | 0.00 | 0.11 | 0.00 | 90 | 1016.5 |
| 20260901043106 | 70 | 0 | 0.0 | 0.0 | 0.00 | 0.11 | 0.00 | 90 | 1016.4 |
| 20260901041602 | 70 | 0 | 0.0 | 0.0 | 0.00 | 0.11 | 0.00 | 90 | 1016.3 |
| 20260901040104 | 70 | 0 | 0.0 | 0.0 | 0.00 | 0.11 | 0.00 | 89 | 1016.5 |
| 20260901034559 | 70 | 0 | 0.0 | 0.0 | 0.00 | 0.11 | 0.11 | 90 | 1016.4 |
| 20260901033102 | 70 | 0 | 0.0 | 0.0 | 0.00 | 0.11 | 0.11 | 89 | 1016.5 |
| 20260901031602 | 70 | 0 | 0.0 | 0.0 | 0.00 | 0.11 | 0.11 | 88 | 1016.3 |
| 20260901030100 | 71 | 0 | 0.0 | 0.0 | 0.00 | 0.11 | 0.11 | 89 | 1016.2 |
| 20260901024604 | 71 | 0 | 0.0 | 0.0 | 0.00 | 0.11 | 0.11 | 89 | 1016.3 |
| 20260901023104 | 71 | 0 | 0.0 | 0.0 | 0.00 | 0.11 | 0.11 | 89 | 1016.4 |
| 20260901021603 | 72 | 0 | 1.0 | 2.0 | 0.00 | 0.11 | 0.11 | 89 | 1016.5 |
| 20260901014603 | 72 | 0 | 0.0 | 0.0 | 0.00 | 0.12 | 0.11 | 88 | 1016.9 |
| 20260901013109 | 72 | 0 | 0.0 | 0.0 | 0.00 | 0.12 | 0.11 | 87 | 1017.1 |
| 20260901011604 | 73 | 0 | 0.0 | 0.0 | 0.00 | 0.12 | 0.11 | 86 | 1017.1 |
| 20260901010127 | 73 | 0 | 0.0 | 0.0 | 0.00 | 0.12 | 0.11 | 86 | 1016.9 |
| 20260901004603 | 74 | 0 | 0.0 | 0.0 | 0.00 | 0.12 | 0.11 | 86 | 1016.7 |
| 20260901003118 | 74 | 0 | 0.0 | 0.0 | 0.00 | 0.12 | 0.11 | 85 | 1016.6 |
| 20260901001622 | 75 | 0 | 0.0 | 0.0 | 0.00 | 0.12 | 0.11 | 84 | 1016.7 |
| 20260901000106 | 76 | 0 | 0.0 | 0.0 | 0.00 | 0.12 | 0.11 | 83 | 1016.7 |
| 20260831234602 | 77 | 0 | 0.0 | 0.0 | 0.00 | 0.12 | 0.11 | 82 | 1016.6 |
| 20260831233104 | 78 | 0 | 0.0 | 0.0 | 0.00 | 0.12 | 0.11 | 82 | 1016.3 |
| 20260831231614 | 79 | 0 | 0.0 | 1.0 | 0.00 | 0.12 | 0.11 | 82 | 1016.0 |
| 20260831230126 | 80 | 0 | 0.0 | 1.0 | 0.00 | 0.12 | 0.11 | 81 | 1016.3 |
| 20260831224624 | 81 | 11 | 0.0 | 2.0 | 0.00 | 0.12 | 0.11 | 80 | 1016.3 |
| 20260831223110 | 82 | 11 | 0.0 | 1.0 | 0.00 | 0.12 | 0.11 | 79 | 1016.4 |
| 20260831221608 | 82 | 0 | 0.0 | 1.0 | 0.00 | 0.12 | 0.11 | 79 | 1016.7 |
| 20260831220106 | 83 | 0 | 0.0 | 1.0 | 0.00 | 0.12 | 0.11 | 77 | 1016.8 |
| 20260831214559 | 84 | 0 | 0.0 | 1.0 | 0.00 | 0.12 | 0.11 | 75 | 1016.7 |
| 20260831213102 | 84 | 11 | 0.0 | 1.0 | 0.00 | 0.12 | 0.11 | 75 | 1016.7 |
| 20260831211621 | 85 | 0 | 0.0 | 2.0 | 0.00 | 0.12 | 0.11 | 74 | 1016.7 |
| 20260831210100 | 85 | 341 | 0.0 | 2.0 | 0.00 | 0.12 | 0.11 | 68 | 1016.5 |
| 20260831204604 | 85 | 48 | 0.0 | 3.0 | 0.00 | 0.12 | 0.11 | 68 | 1016.7 |
| 20260831203105 | 85 | 0 | 2.0 | 4.0 | 0.00 | 0.12 | 0.11 | 65 | 1016.9 |
| 20260831201610 | 85 | 320 | 1.0 | 4.0 | 0.00 | 0.12 | 0.11 | 71 | 1017.1 |
| 20260831194643 | 83 | 19 | 0.0 | 0.0 | 0.00 | 0.12 | 0.11 | 75 | 1017.5 |
| 20260831193059 | 82 | 0 | 0.0 | 2.0 | 0.00 | 0.12 | 0.11 | 76 | 1017.5 |
| 20260831191607 | 82 | 0 | 0.0 | 1.0 | 0.00 | 0.12 | 0.11 | 77 | 1017.7 |
| 20260831190109 | 82 | 0 | 0.0 | 2.0 | 0.00 | 0.12 | 0.11 | 76 | 1017.8 |
| 20260831184603 | 83 | 309 | 0.0 | 5.0 | 0.00 | 0.14 | 0.11 | 71 | 1018.0 |
| 20260831183108 | 84 | 323 | 2.0 | 7.0 | 0.00 | 0.14 | 0.11 | 70 | 1017.9 |
| 20260831181604 | 82 | 5 | 1.0 | 5.0 | 0.00 | 0.14 | 0.11 | 74 | 1017.9 |
| 20260831180107 | 82 | 11 | 1.0 | 6.0 | 0.00 | 0.14 | 0.11 | 74 | 1018.1 |
| 20260831174601 | 81 | 22 | 1.0 | 5.0 | 0.00 | 0.15 | 0.11 | 77 | 1018.1 |
| 20260831173104 | 80 | 344 | 0.0 | 10.0 | 0.00 | 0.15 | 0.11 | 80 | 1018.2 |
| 20260831171605 | 79 | 304 | 1.0 | 5.0 | 0.00 | 0.15 | 0.11 | 81 | 1018.3 |
| 20260831170110 | 78 | 344 | 3.0 | 9.0 | 0.00 | 0.15 | 0.11 | 82 | 1018.6 |
| 20260831164603 | 77 | 39 | 2.0 | 6.0 | 0.00 | 0.15 | 0.11 | 84 | 1018.6 |
| 20260831163106 | 75 | 277 | 0.0 | 2.0 | 0.00 | 0.15 | 0.11 | 88 | 1018.6 |
| 20260831161607 | 74 | 197 | 0.0 | 1.0 | 0.00 | 0.15 | 0.11 | 92 | 1018.7 |
| 20260831160104 | 72 | 0 | 0.0 | 1.0 | 0.00 | 0.15 | 0.11 | 93 | 1018.9 |
| 20260831154634 | 71 | 0 | 0.0 | 1.0 | 0.00 | 0.15 | 0.11 | 92 | 1019.2 |
| 20260831153118 | 70 | 0 | 0.0 | 5.0 | 0.00 | 0.15 | 0.11 | 92 | 1018.9 |
| 20260831151607 | 69 | 355 | 1.0 | 7.0 | 0.00 | 0.15 | 0.11 | 93 | 1019.0 |
| 20260831150105 | 69 | 36 | 0.0 | 1.0 | 0.00 | 0.15 | 0.11 | 93 | 1019.2 |
| 20260831144655 | 68 | 0 | 0.0 | 2.0 | 0.00 | 0.15 | 0.11 | 93 | 1019.1 |
| 20260831143106 | 68 | 0 | 0.0 | 2.0 | 0.00 | 0.15 | 0.11 | 93 | 1018.9 |
| 20260831141612 | 67 | 9 | 0.0 | 2.0 | 0.00 | 0.15 | 0.11 | 93 | 1018.9 |
| 20260831140105 | 67 | 5 | 1.0 | 3.0 | 0.00 | 0.15 | 0.11 | 94 | 1018.9 |
| 20260831134604 | 67 | 0 | 0.0 | 2.0 | 0.00 | 0.15 | 0.11 | 93 | 1019.0 |
| 20260831133109 | 66 | 0 | 0.0 | 3.0 | 0.00 | 0.15 | 0.11 | 94 | 1019.1 |
| 20260831131607 | 66 | 42 | 1.0 | 3.0 | 0.00 | 0.15 | 0.11 | 93 | 1018.9 |
| 20260831130109 | 66 | 57 | 0.0 | 3.0 | 0.01 | 0.15 | 0.11 | 93 | 1019.2 |
| 20260831124615 | 66 | 0 | 0.0 | 3.0 | 0.01 | 0.15 | 0.11 | 93 | 1019.3 |
| 20260831123104 | 66 | 0 | 0.0 | 1.0 | 0.01 | 0.15 | 0.11 | 93 | 1019.2 |
| 20260831121609 | 65 | 0 | 0.0 | 1.0 | 0.01 | 0.15 | 0.11 | 93 | 1019.2 |